CW3860 Weather Reports


time (UTC)temp
C
wind
direction
speed
KPH
gust
KPH
rain 1hr
cm
rain 24hr
cm
rain mn
cm
humidity
%
barometer
mb
20260504002530 15 205 0.0 1.6 0.00 0.00 0.00 66 1017.1
20260504002030 15 205 0.0 1.6 0.00 0.00 0.00 66 1017.1
20260504001529 15 205 0.0 0.0 0.00 0.00 0.00 66 1017.1
20260504001029 15 205 0.0 3.2 0.00 0.00 0.00 66 1017.1
20260504000532 15 201 0.0 0.0 0.00 0.00 0.00 65 1017.0
20260504000030 15 202 0.0 0.0 0.00 0.00 0.00 65 1017.1
20260503235529 15 202 0.0 1.6 0.00 0.00 0.00 65 1017.2
20260503235029 16 133 0.0 0.0 0.00 0.00 0.00 65 1017.2
20260503234530 16 132 0.0 1.6 0.00 0.00 0.00 65 1017.2
20260503234029 15 107 0.0 3.2 0.00 0.00 0.00 65 1017.2
20260503233530 15 117 1.6 3.2 0.00 0.00 0.00 65 1017.2
20260503233029 15 231 1.6 1.6 0.00 0.00 0.00 65 1017.2
20260503232532 15 231 0.0 1.6 0.00 0.00 0.00 65 1017.2
20260503232029 15 230 0.0 0.0 0.00 0.00 0.00 66 1017.2
20260503231530 15 230 0.0 1.6 0.00 0.00 0.00 66 1017.2
20260503231029 15 231 0.0 1.6 0.00 0.00 0.00 66 1017.1
20260503230529 15 231 0.0 1.6 0.00 0.00 0.00 66 1017.1
20260503230029 15 230 0.0 1.6 0.00 0.00 0.00 66 1017.1
20260503225529 15 231 1.6 1.6 0.00 0.00 0.00 66 1017.2
20260503225029 15 231 0.0 1.6 0.00 0.00 0.00 66 1017.2
20260503224530 15 231 0.0 1.6 0.00 0.00 0.00 67 1017.3
20260503224029 15 230 0.0 1.6 0.00 0.00 0.00 66 1017.3
20260503223529 15 231 0.0 1.6 0.00 0.00 0.00 66 1017.3
20260503223029 15 231 1.6 1.6 0.00 0.00 0.00 65 1017.3
20260503222529 15 230 0.0 1.6 0.00 0.00 0.00 65 1017.3
20260503222029 15 231 0.0 1.6 0.00 0.00 0.00 65 1017.3
20260503221529 15 178 0.0 1.6 0.00 0.00 0.00 66 1017.2
20260503221029 15 178 0.0 3.2 0.00 0.00 0.00 66 1017.3
20260503220529 15 213 1.6 3.2 0.00 0.00 0.00 66 1017.2
20260503220029 15 309 1.6 1.6 0.00 0.00 0.00 66 1017.2
20260503215530 15 308 0.0 1.6 0.00 0.00 0.00 65 1017.2
20260503215029 16 309 0.0 1.6 0.00 0.00 0.00 65 1017.2
20260503214530 16 309 0.0 1.6 0.00 0.00 0.00 64 1017.2
20260503214032 16 309 1.6 1.6 0.00 0.00 0.00 63 1017.2
20260503213530 16 309 1.6 1.6 0.00 0.00 0.00 63 1017.1
20260503213030 16 309 0.0 3.2 0.00 0.00 0.00 63 1017.2
20260503212530 16 306 1.6 3.2 0.00 0.00 0.00 61 1017.2
20260503212030 16 267 0.0 1.6 0.00 0.00 0.00 61 1017.2
20260503211529 16 226 0.0 1.6 0.00 0.00 0.00 60 1017.2
20260503211030 16 225 0.0 0.0 0.00 0.00 0.00 61 1017.1
20260503210530 16 225 0.0 1.6 0.00 0.00 0.00 60 1017.1
20260503210032 16 225 0.0 3.2 0.00 0.00 0.00 60 1017.2
20260503205529 16 302 0.0 0.0 0.00 0.00 0.00 61 1017.2
20260503205029 16 302 0.0 0.0 0.00 0.00 0.00 60 1017.2
20260503204529 16 302 0.0 1.6 0.00 0.00 0.00 59 1017.2
20260503204029 16 290 1.6 1.6 0.00 0.00 0.00 58 1017.2
20260503203529 17 290 0.0 1.6 0.00 0.00 0.00 57 1017.1
20260503203030 17 290 0.0 1.6 0.00 0.00 0.00 57 1017.1
20260503202532 17 290 0.0 1.6 0.00 0.00 0.00 57 1017.2
20260503202029 17 290 0.0 1.6 0.00 0.00 0.00 56 1017.2
20260503201530 17 290 0.0 1.6 0.00 0.00 0.00 57 1017.1
20260503201029 17 290 0.0 1.6 0.00 0.00 0.00 57 1017.2
20260503200530 17 290 0.0 1.6 0.00 0.00 0.00 56 1017.2
20260503200029 17 290 0.0 1.6 0.00 0.00 0.00 57 1017.2
20260503195530 17 290 0.0 1.6 0.00 0.00 0.00 56 1017.2
20260503195030 17 290 0.0 1.6 0.00 0.00 0.00 56 1017.2
20260503194529 17 290 0.0 1.6 0.00 0.00 0.00 55 1017.2
20260503194030 17 290 0.0 1.6 0.00 0.00 0.00 55 1017.2
20260503193533 17 290 0.0 1.6 0.00 0.00 0.00 54 1017.2
20260503193030 18 290 0.0 1.6 0.00 0.00 0.00 54 1017.2
20260503192530 18 290 0.0 1.6 0.00 0.00 0.00 53 1017.2
20260503192030 18 290 0.0 0.0 0.00 0.00 0.00 53 1017.2
20260503191533 18 290 0.0 1.6 0.00 0.00 0.00 54 1017.1
20260503191033 18 290 0.0 0.0 0.00 0.00 0.00 54 1017.2
20260503190530 18 290 0.0 0.0 0.00 0.00 0.00 54 1017.1
20260503190030 18 290 0.0 1.6 0.00 0.00 0.00 54 1017.1
20260503185530 18 290 0.0 1.6 0.00 0.00 0.00 54 1017.1
20260503185033 18 292 0.0 3.2 0.00 0.00 0.00 53 1017.0
20260503184530 18 202 0.0 0.0 0.00 0.00 0.00 51 1017.0
20260503184030 18 202 0.0 1.6 0.00 0.00 0.00 52 1017.0
20260503183530 19 202 0.0 0.0 0.00 0.00 0.00 52 1017.0
20260503183030 19 202 0.0 1.6 0.00 0.00 0.00 56 1016.9
20260503182530 19 202 0.0 0.0 0.00 0.00 0.00 55 1016.9
20260503182030 19 202 0.0 1.6 0.00 0.00 0.00 55 1016.9
20260503181530 19 202 0.0 3.2 0.00 0.00 0.00 55 1016.9
20260503181031 19 197 1.6 4.8 0.00 0.00 0.00 54 1016.8
20260503180530 19 135 0.0 4.8 0.00 0.00 0.00 55 1016.8
20260503180034 20 160 1.6 3.2 0.00 0.00 0.00 57 1016.8
20260503175530 20 196 0.0 1.6 0.00 0.00 0.00 59 1016.8
20260503175030 20 196 1.6 3.2 0.00 0.00 0.00 58 1016.8
20260503174533 20 186 1.6 4.8 0.00 0.00 0.00 58 1016.7
20260503174030 20 190 3.2 6.4 0.00 0.00 0.00 58 1016.8
20260503173530 20 171 1.6 8.0 0.00 0.00 0.00 57 1016.8
20260503173030 20 203 4.8 6.4 0.00 0.00 0.00 62 1016.9
20260503172531 20 156 1.6 8.0 0.00 0.00 0.00 64 1016.9
20260503172033 20 88 3.2 6.4 0.00 0.00 0.00 64 1016.9
20260503171530 20 174 4.8 6.4 0.00 0.00 0.00 62 1017.0
20260503171030 20 123 4.8 8.0 0.00 0.00 0.00 60 1016.9
20260503170530 20 121 6.4 9.7 0.00 0.00 0.00 59 1016.9
20260503150531 21 134 3.2 8.0 0.00 0.00 0.00 60 1017.4
20260503131030 21 119 6.4 11.3 0.00 0.00 0.00 61 1018.0
20260503130531 21 92 9.7 11.3 0.00 0.00 0.00 61 1018.1
20260503110534 21 100 4.8 9.7 0.00 0.00 0.00 63 1019.0
20260503081531 21 91 6.4 6.4 0.00 0.00 0.00 59 1019.9
20260503081031 21 85 3.2 8.0 0.00 0.00 0.00 55 1019.8
20260503080535 21 105 8.0 8.0 0.00 0.00 0.00 52 1019.8
20260503072535 20 106 4.8 6.4 0.00 0.00 0.00 51 1019.8
20260503072031 20 99 1.6 6.4 0.00 0.00 0.00 51 1019.8
20260503071532 20 94 3.2 6.4 0.00 0.00 0.00 52 1019.8
20260503071031 20 113 4.8 6.4 0.00 0.00 0.00 49 1019.9
20260503070531 20 97 3.2 6.4 0.00 0.00 0.00 50 1019.8
20260503055032 16 355 0.0 1.6 0.00 0.00 0.00 56 1019.6
20260503054534 16 355 0.0 1.6 0.00 0.00 0.00 58 1019.5
20260503054032 15 355 1.6 3.2 0.00 0.00 0.00 57 1019.5
20260503053532 15 355 0.0 1.6 0.00 0.00 0.00 57 1019.5
20260503053031 15 355 0.0 1.6 0.00 0.00 0.00 57 1019.4
20260503052531 15 355 0.0 3.2 0.00 0.00 0.00 56 1019.5
20260503052031 15 341 3.2 4.8 0.00 0.00 0.00 56 1019.4
20260503051531 15 336 1.6 1.6 0.00 0.00 0.00 57 1019.4
20260503051032 15 336 1.6 3.2 0.00 0.00 0.00 57 1019.5
20260503050532 15 286 0.0 1.6 0.00 0.00 0.00 60 1019.5
20260503050032 14 286 0.0 1.6 0.00 0.00 0.00 59 1019.5
20260503045535 14 279 0.0 1.6 0.00 0.00 0.00 59 1019.5
20260503045032 14 279 0.0 1.6 0.00 0.00 0.00 59 1019.6
20260503044532 14 279 0.0 1.6 0.00 0.00 0.00 58 1019.6
20260503044035 14 279 0.0 3.2 0.00 0.00 0.00 58 1019.6
20260503043535 14 261 0.0 1.6 0.00 0.00 0.00 58 1019.6
20260503043032 14 261 0.0 1.6 0.00 0.00 0.00 57 1019.6
20260503042532 14 305 0.0 4.8 0.00 0.00 0.00 57 1019.5
20260503042032 14 355 0.0 3.2 0.00 0.00 0.00 58 1019.5
20260503041535 13 325 0.0 3.2 0.00 0.00 0.00 58 1019.5
20260503041032 13 333 1.6 4.8 0.00 0.00 0.00 60 1019.5
20260503040532 13 322 0.0 3.2 0.00 0.00 0.00 61 1019.5
20260503040032 12 222 0.0 1.6 0.00 0.00 0.00 62 1019.5
20260503035532 12 213 0.0 1.6 0.00 0.00 0.00 63 1019.5
20260503035032 12 336 1.6 1.6 0.00 0.00 0.00 64 1019.5
20260503034535 12 336 0.0 1.6 0.00 0.00 0.00 63 1019.5
20260503034032 12 336 0.0 3.2 0.00 0.00 0.00 63 1019.5
20260503033533 13 271 0.0 1.6 0.00 0.00 0.00 62 1019.5
20260503033032 13 271 1.6 1.6 0.00 0.00 0.00 61 1019.5
20260503032532 13 344 0.0 3.2 0.00 0.00 0.00 61 1019.5
20260503032032 13 344 0.0 3.2 0.00 0.00 0.00 60 1019.5
20260503031532 13 344 0.0 1.6 0.00 0.00 0.00 60 1019.6
20260503031032 13 344 0.0 3.2 0.00 0.00 0.00 60 1019.5
20260503030532 13 344 1.6 1.6 0.00 0.00 0.00 60 1019.5
20260503030033 13 344 0.0 1.6 0.00 0.00 0.00 60 1019.5
20260503025532 13 344 0.0 1.6 0.00 0.00 0.00 60 1019.4
20260503025032 13 344 0.0 1.6 0.00 0.00 0.00 60 1019.5
20260503024532 13 344 0.0 0.0 0.00 0.00 0.00 60 1019.5
20260503024032 13 344 0.0 1.6 0.00 0.00 0.00 59 1019.5
20260503023532 13 344 1.6 3.2 0.00 0.00 0.00 59 1019.6
20260503023032 13 330 0.0 1.6 0.00 0.00 0.00 59 1019.6
20260503022532 13 330 0.0 3.2 0.00 0.00 0.00 59 1019.6
20260503022032 13 331 1.6 3.2 0.00 0.00 0.00 59 1019.7
20260503021532 13 333 1.6 3.2 0.00 0.00 0.00 60 1019.7
20260503021032 13 333 3.2 3.2 0.00 0.00 0.00 60 1019.8
20260503020528 13 267 0.0 3.2 0.00 0.00 0.00 60 1019.8
20260503020028 13 254 1.6 1.6 0.00 0.00 0.00 60 1019.8
20260503015528 13 254 0.0 0.0 0.00 0.00 0.00 60 1019.8
20260503015029 13 254 0.0 0.0 0.00 0.00 0.00 59 1019.8
20260503014528 13 254 0.0 1.6 0.00 0.00 0.00 59 1019.8
20260503014031 13 257 0.0 1.6 0.00 0.00 0.00 60 1019.9
20260503013531 13 232 0.0 1.6 0.00 0.00 0.00 60 1019.9
20260503013028 13 262 0.0 1.6 0.00 0.00 0.00 61 1020.0
20260503012531 13 229 0.0 1.6 0.00 0.00 0.00 61 1020.0
20260503012031 13 229 0.0 1.6 0.00 0.00 0.00 60 1020.1
20260503011528 14 229 0.0 1.6 0.00 0.00 0.00 59 1020.0
20260503011028 14 229 0.0 1.6 0.00 0.00 0.00 60 1020.1
20260503010528 14 229 0.0 1.6 0.00 0.00 0.00 59 1020.2
20260503010031 13 223 0.0 3.2 0.00 0.00 0.00 59 1020.2
20260503005528 13 282 0.0 1.6 0.00 0.00 0.00 60 1020.2
20260503005028 13 300 0.0 1.6 0.00 0.00 0.00 61 1020.3
20260503004529 13 303 3.2 3.2 0.00 0.00 0.00 61 1020.3
20260503004028 13 223 1.6 3.2 0.00 0.00 0.00 64 1020.4
20260503003532 13 222 0.0 1.6 0.00 0.00 0.00 63 1020.4
20260503003028 14 223 0.0 0.0 0.00 0.00 0.00 63 1020.4